Tiempo cada hora Cele

Hoy, 20 Abril, Martes

Tiempo Temperatura Precipitaciones Viento Presión Humedad
00:00 +6°C° 0.1 mm 0 mps 735 mmHg 96%
01:00 +5°C° 0 mm 0 mps 735 mmHg 96%
02:00 +5°C° 0.1 mm 0 mps 735 mmHg 96%
03:00 +5°C° 0.1 mm 0 mps 735 mmHg 96%
04:00 +5°C° 0.1 mm 0 mps 734 mmHg 96%
05:00 +6°C° 0 mm 0 mps 735 mmHg 93%
06:00 +6°C° 0 mm 0 mps 735 mmHg 91%
07:00 +7°C° 0 mm 0 mps 735 mmHg 88%
08:00 +8°C° 0.1 mm 0 mps 735 mmHg 82%
09:00 +9°C° 0.1 mm 0 mps 735 mmHg 76%
10:00 +11°C° 0.1 mm 0 mps 735 mmHg 70%
11:00 +12°C° 0.3 mm 1 mps 735 mmHg 71%
12:00 +12°C° 0.3 mm 1 mps 735 mmHg 72%
13:00 +12°C° 0.3 mm 1 mps 735 mmHg 73%
14:00 +12°C° 0.2 mm 1 mps 735 mmHg 71%
15:00 +12°C° 0.2 mm 1 mps 734 mmHg 70%
16:00 +13°C° 0.2 mm 1 mps 734 mmHg 69%
17:00 +11°C° 0.1 mm 1 mps 734 mmHg 76%
18:00 +9°C° 0.1 mm 0 mps 735 mmHg 83%
19:00 +7°C° 0.1 mm 0 mps 735 mmHg 90%
20:00 +7°C° 0 mm 0 mps 735 mmHg 91%
21:00 +6°C° 0 mm 0 mps 736 mmHg 92%
22:00 +6°C° 0 mm 0 mps 736 mmHg 94%
23:00 +6°C° 0 mm 1 mps 736 mmHg 94%

Mañana, 21 Abril, Miércoles

Tiempo Temperatura Precipitaciones Viento Presión Humedad
00:00 +6°C° 0 mm 1 mps 736 mmHg 94%
01:00 +6°C° 0 mm 1 mps 736 mmHg 94%
02:00 +6°C° 0 mm 1 mps 736 mmHg 95%
03:00 +5°C° 0 mm 1 mps 736 mmHg 95%
04:00 +5°C° 0 mm 1 mps 736 mmHg 95%
05:00 +6°C° 0 mm 1 mps 736 mmHg 92%
06:00 +8°C° 0 mm 1 mps 736 mmHg 89%
07:00 +9°C° 0 mm 1 mps 736 mmHg 86%
08:00 +11°C° 0 mm 1 mps 736 mmHg 76%
09:00 +13°C° 0 mm 2 mps 736 mmHg 67%
10:00 +14°C° 0 mm 3 mps 736 mmHg 57%
11:00 +16°C° 0 mm 3 mps 736 mmHg 53%
12:00 +17°C° 0 mm 4 mps 736 mmHg 48%
13:00 +18°C° 0 mm 4 mps 735 mmHg 44%
14:00 +17°C° 0 mm 4 mps 735 mmHg 46%
15:00 +17°C° 0 mm 4 mps 735 mmHg 49%
16:00 +16°C° 0 mm 5 mps 735 mmHg 52%
17:00 +14°C° 0 mm 4 mps 735 mmHg 60%
18:00 +12°C° 0 mm 4 mps 735 mmHg 68%
19:00 +10°C° 0 mm 3 mps 735 mmHg 76%
20:00 +9°C° 0 mm 3 mps 735 mmHg 81%
21:00 +8°C° 0 mm 2 mps 736 mmHg 85%
22:00 +7°C° 0 mm 2 mps 736 mmHg 90%
23:00 +6°C° 0 mm 2 mps 736 mmHg 91%

Pasado mañana, 22 Abril, Jueves

Tiempo Temperatura Precipitaciones Viento Presión Humedad
00:00 +6°C° 0 mm 2 mps 736 mmHg 92%
01:00 +6°C° 0 mm 2 mps 736 mmHg 93%
02:00 +6°C° 0 mm 2 mps 736 mmHg 93%
03:00 +5°C° 0 mm 2 mps 736 mmHg 94%
04:00 +5°C° 0 mm 2 mps 736 mmHg 95%
05:00 +6°C° 0 mm 2 mps 736 mmHg 89%
06:00 +9°C° 0 mm 1 mps 736 mmHg 84%
07:00 +10°C° 0 mm 1 mps 736 mmHg 78%
08:00 +12°C° 0 mm 2 mps 736 mmHg 70%
09:00 +13°C° 0 mm 3 mps 736 mmHg 61%
10:00 +16°C° 0 mm 3 mps 736 mmHg 53%
11:00 +17°C° 0 mm 4 mps 736 mmHg 51%
12:00 +17°C° 0 mm 4 mps 736 mmHg 50%
13:00 +17°C° 0 mm 4 mps 735 mmHg 49%
14:00 +17°C° 0.1 mm 4 mps 735 mmHg 52%
15:00 +17°C° 0.1 mm 4 mps 735 mmHg 54%
16:00 +15°C° 0.1 mm 4 mps 735 mmHg 57%
17:00 +13°C° 0.5 mm 3 mps 736 mmHg 68%
18:00 +12°C° 0.5 mm 2 mps 736 mmHg 78%
19:00 +10°C° 0.5 mm 1 mps 737 mmHg 89%
20:00 +9°C° 1.1 mm 1 mps 738 mmHg 91%
21:00 +9°C° 1.1 mm 1 mps 738 mmHg 93%
22:00 +8°C° 1.1 mm 1 mps 739 mmHg 95%
23:00 +8°C° 1.4 mm 1 mps 739 mmHg 95%

23 Abril, Viernes

Tiempo Temperatura Precipitaciones Viento Presión Humedad
00:00 +7°C° 1.4 mm 1 mps 740 mmHg 95%
01:00 +7°C° 1.4 mm 1 mps 740 mmHg 96%
02:00 +7°C° 1 mm 1 mps 740 mmHg 96%
03:00 +6°C° 1 mm 1 mps 741 mmHg 96%
04:00 +6°C° 1 mm 1 mps 741 mmHg 97%
05:00 +6°C° 0.3 mm 1 mps 741 mmHg 96%
06:00 +6°C° 0.3 mm 1 mps 741 mmHg 95%
07:00 +6°C° 0.3 mm 1 mps 742 mmHg 94%
08:00 +7°C° 0 mm 1 mps 742 mmHg 90%
09:00 +8°C° 0 mm 1 mps 742 mmHg 87%
10:00 +9°C° 0 mm 1 mps 742 mmHg 83%
11:00 +10°C° 0 mm 1 mps 742 mmHg 77%
12:00 +11°C° 0 mm 1 mps 741 mmHg 70%
13:00 +11°C° 0 mm 0 mps 741 mmHg 64%
14:00 +12°C° 0 mm 0 mps 741 mmHg 62%
15:00 +12°C° 0 mm 0 mps 740 mmHg 59%
16:00 +13°C° 0 mm 0 mps 740 mmHg 57%
17:00 +11°C° 0 mm 0 mps 740 mmHg 65%
18:00 +9°C° 0 mm 0 mps 740 mmHg 73%
19:00 +8°C° 0 mm 0 mps 741 mmHg 81%
20:00 +7°C° 0 mm 0 mps 741 mmHg 84%
21:00 +6°C° 0 mm 0 mps 742 mmHg 86%
22:00 +6°C° 0 mm 0 mps 742 mmHg 89%
23:00 +5°C° 0 mm 0 mps 742 mmHg 90%

24 Abril, Sábado

Tiempo Temperatura Precipitaciones Viento Presión Humedad
00:00 +5°C° 0 mm 0 mps 742 mmHg 90%
01:00 +6°C° 0 mm 1 mps 742 mmHg 91%
02:00 +6°C° 0 mm 1 mps 742 mmHg 90%
03:00 +6°C° 0 mm 1 mps 742 mmHg 89%
04:00 +7°C° 0 mm 1 mps 742 mmHg 88%
05:00 +7°C° 0 mm 1 mps 742 mmHg 83%
06:00 +8°C° 0 mm 1 mps 742 mmHg 79%
07:00 +9°C° 0 mm 1 mps 743 mmHg 74%
08:00 +10°C° 0 mm 1 mps 742 mmHg 67%
09:00 +12°C° 0 mm 1 mps 742 mmHg 59%
10:00 +14°C° 0 mm 1 mps 742 mmHg 52%
11:00 +15°C° 0 mm 1 mps 741 mmHg 49%
12:00 +16°C° 0 mm 1 mps 740 mmHg 46%
13:00 +18°C° 0 mm 1 mps 740 mmHg 43%
14:00 +18°C° 0 mm 1 mps 739 mmHg 44%
15:00 +16°C° 0 mm 1 mps 739 mmHg 45%
16:00 +16°C° 0 mm 2 mps 738 mmHg 45%
17:00 +14°C° 0 mm 1 mps 738 mmHg 55%
18:00 +12°C° 0 mm 1 mps 738 mmHg 64%
19:00 +10°C° 0 mm 1 mps 739 mmHg 74%
20:00 +9°C° 0 mm 1 mps 739 mmHg 76%
21:00 +8°C° 0 mm 0 mps 739 mmHg 78%
22:00 +7°C° 0 mm 0 mps 739 mmHg 80%
23:00 +6°C° 0 mm 0 mps 739 mmHg 81%

25 Abril, Domingo

Tiempo Temperatura Precipitaciones Viento Presión Humedad
00:00 +6°C° 0 mm 0 mps 739 mmHg 83%
01:00 +6°C° 0 mm 0 mps 739 mmHg 84%
02:00 +5°C° 0 mm 0 mps 739 mmHg 85%
03:00 +5°C° 0 mm 0 mps 739 mmHg 87%
04:00 +5°C° 0 mm 0 mps 739 mmHg 88%
05:00 +6°C° 0 mm 0 mps 739 mmHg 83%
06:00 +7°C° 0 mm 0 mps 739 mmHg 78%
07:00 +10°C° 0 mm 1 mps 739 mmHg 72%
08:00 +12°C° 0 mm 1 mps 739 mmHg 67%
09:00 +13°C° 0 mm 1 mps 739 mmHg 61%
10:00 +15°C° 0 mm 1 mps 739 mmHg 56%
11:00 +15°C° 0 mm 1 mps 739 mmHg 55%
12:00 +16°C° 0 mm 1 mps 738 mmHg 54%
13:00 +16°C° 0 mm 1 mps 738 mmHg 53%
14:00 +16°C° 0 mm 2 mps 738 mmHg 54%
15:00 +16°C° 0 mm 2 mps 737 mmHg 55%
16:00 +16°C° 0 mm 2 mps 737 mmHg 56%
17:00 +15°C° 0.1 mm 2 mps 737 mmHg 64%
18:00 +13°C° 0.1 mm 1 mps 738 mmHg 72%
19:00 +12°C° 0.1 mm 1 mps 738 mmHg 80%
20:00 +11°C° 0 mm 1 mps 738 mmHg 82%
21:00 +11°C° 0 mm 1 mps 739 mmHg 84%
22:00 +10°C° 0 mm 1 mps 739 mmHg 85%
23:00 +10°C° 0 mm 1 mps 739 mmHg 85%
Mostrar más

Necesitamos Su Consentimiento

Meteoprog y nuestros Proveedores de Servicios pueden almacenar y acceder a sus datos personales como cookies, identificadores de dispositivo u otras tecnologías similares de su dispositivo y procesar dichos datos para personalizar contenido y anuncios, además de ofrecer funciones de redes sociales y analizar el tráfico.

  • Almacenar y/o acceder a información en su dispositivo

    Se puede almacenar o acceder a cookies, identificadores de dispositivo u otra información de su dispositivo para los fines anteriormente indicados.

  • Anuncios y contenido personalizados, medición de anuncios y contenido, percepciones del público, y desarrollo de productos

    Los anuncios y el contenido pueden personalizarse en base a su perfil. Se pueden añadir más datos para personalizar mejor los anuncios y contenidos. Se puede medir el rendimiento de los anuncios y contenidos. Se puede obtener la percepción sobre el público que ha visto los anuncios y contenidos. Dichos datos pueden usarse para desarrollar o mejorar la experiencia del usuario, sistemas y software.

Al hacer clic en ‘Estoy De Acuerdo’ usted permitirá el uso de las cookies, identificadores de dispositivo, balizas web u otras tecnologías similares indicadas. Su configuración puede cambiarse desde el navegador de su dispositivo.

Para ciertos fines, los intereses legítimos pueden ser considerados por encima del consentimiento. Puede leer más sobre ello en nuestra Política de Privacidad y Cookies.